Location: Kampernieuwstad
(52.5135°N, 5.8742°E)
Time: 10:34:07
(UTC+00:00)

Cosmos 1634 Rocket - Pass Details

Date: 15 May 2026
Orbit: 960 x 990 km, 82.9° (Epoch: 6 June)

Event Time Altitude Azimuth Distance (km) Brightness Sun altitude
Exits shadow 22:22:33 23° 186° (S) 1,920 5.0 -16.8°
Maximum altitude 22:26:37 87° 100° (E) 974 3.9 -17.0°
Drops below altitude 10° 22:32:52 10° 11° (N) 2,725 7.3 -17.3°
Sets 22:35:23 0° 11° (N) 3,680 8.2 -17.4°
